Torna al catalogo

STARLINK-30137

AttivoComunicazioniVLEO
NORAD 56843·PAYLOAD·🇺🇸 United States

Lanciato Jun 4, 2023 da Cape Canaveral Space Force Station

Loading…

Prossimi Passaggi (prossime 24 ore)

TLE

AggiornatoSource: CelesTrak SupGP

Epoca: Sep 14, 2026, 20:59 UTC

1 56843C 23079W   26257.87479167 -.00007116  00000+0 -25778-3 0  2573
2 56843  43.0019 118.4014 0001550 278.0989  69.0106 15.27578519    11

Traccia STARLINK-30137 in tempo reale con AllMySat

Download on the App Store